Athens, OH

6:16 AM EST on November 15, 2019 (GMT -0500)
Ohio University

Weather History for KUNI - September, 2019

Change the Weather History Date:

Friday, September 6, 2019

  Actual Average (WUND) Record (WUND)
Temperature  
Mean Temperature 64 °F -  
Max Temperature 78 °F - - (-1)
Min Temperature 50 °F - - (-1)
Degree Days  
Heating Degree Days 1    
Growing Degree Days 14 (Base 50)    
Moisture  
Dew Point 57 °F    
Average Humidity 78    
Maximum Humidity 100    
Minimum Humidity 47    
Precipitation  
Precipitation 0.00 in - - ()
Sea Level Pressure  
Sea Level Pressure 29.93 in    
Wind  
Wind Speed 2 mph (West)    
Max Wind Speed 12 mph    
Max Gust Speed -    
Visibility 10 miles    
Events      
Averages and records for this station are not official NWS values.
T = Trace of Precipitation, MM = Missing Value Source: NWS Daily Summary

Daily Weather History Graph

Daily Weather History Graph

Search for Another Location

Airport or City:

Astronomy

Sep. 06, 2019 Rise Set
Actual Time 7:01 AM EDT 7:52 PM EDT
Civil Twilight 6:34 AM EDT 8:19 PM EDT
Nautical Twilight 6:02 AM EDT 8:51 PM EDT
Astronomical Twilight 5:28 AM EDT 9:24 PM EDT
Moon 3:05 PM EDT (9/6) 12:11 AM EDT (9/6)
Length of Visible Light 13h 44m
Length of Day
12h 50m
First Quarter, 55% of the Moon is Illuminated
Sep 6
First Quarter
Sep 14
Full
Sep 21
Last Quarter
Sep 28
New
Oct 5
First Quarter

Hourly Weather History & Observations

Time (EDT) Temp. Dew Point Humidity Pressure Visibility Wind Dir Wind Speed Gust Speed Precip Events Conditions
12:15 AM 61.0 °F 54.7 °F 80% 30.01 in 10.0 mi North 3.5 mph - N/A   Clear
12:35 AM 60.4 °F 54.7 °F 81% 30.01 in 10.0 mi Calm Calm - N/A   Clear
12:55 AM 59.9 °F 54.5 °F 82% 30.01 in 10.0 mi Calm Calm - N/A   Clear
1:15 AM 59.5 °F 54.5 °F 83% 30.01 in 10.0 mi Calm Calm - N/A   Clear
1:35 AM 59.4 °F 54.1 °F 83% 30.00 in 10.0 mi Calm Calm - N/A   Clear
1:55 AM 57.4 °F 53.8 °F 88% 30.00 in 10.0 mi Calm Calm - N/A   Clear
2:15 AM 57.0 °F 54.0 °F 89% 29.99 in 10.0 mi Calm Calm - N/A   Clear
2:35 AM 57.0 °F 54.1 °F 90% 29.99 in 10.0 mi Calm Calm - N/A   Clear
2:55 AM 57.0 °F 53.6 °F 88% 29.99 in 10.0 mi Calm Calm - N/A   Clear
3:15 AM 55.8 °F 52.9 °F 90% 29.99 in 10.0 mi Calm Calm - N/A   Clear
3:35 AM 55.9 °F 52.7 °F 89% 29.99 in 5.0 mi Calm Calm - N/A   Clear
3:55 AM 55.6 °F 52.3 °F 89% 29.98 in 10.0 mi Calm Calm - N/A   Clear
4:15 AM 55.2 °F 52.2 °F 89% 29.97 in 10.0 mi Calm Calm - N/A   Clear
4:35 AM 53.4 °F 52.0 °F 95% 29.97 in 10.0 mi Calm Calm - N/A   Clear
4:55 AM 53.6 °F 53.6 °F 100% 29.97 in 10.0 mi Calm Calm - N/A   Clear
5:15 AM 52.2 °F 52.2 °F 100% 29.96 in 10.0 mi Calm Calm - N/A   Clear
5:35 AM 51.4 °F 51.4 °F 100% 29.97 in 10.0 mi Calm Calm - N/A   Clear
5:55 AM 51.3 °F 51.3 °F 100% 29.97 in 10.0 mi Calm Calm - N/A   Clear
6:15 AM 50.9 °F 50.9 °F 100% 29.97 in 10.0 mi Calm Calm - N/A   Clear
6:35 AM 50.7 °F 50.7 °F 100% 29.97 in 10.0 mi Calm Calm - N/A   Clear
6:55 AM 50.5 °F 50.5 °F 100% 29.97 in 10.0 mi Calm Calm - N/A   Clear
7:15 AM 50.5 °F 50.5 °F 100% 29.97 in 10.0 mi North - - N/A   Clear
7:35 AM 50.5 °F 50.5 °F 100% 29.97 in 10.0 mi Calm Calm - N/A   Clear
7:55 AM 51.8 °F 51.8 °F 100% 29.97 in 10.0 mi Calm Calm - N/A   Clear
8:15 AM 53.2 °F 53.2 °F 100% 29.97 in 10.0 mi Calm Calm - N/A   Clear
8:35 AM 55.4 °F 55.4 °F 100% 29.97 in 10.0 mi Calm Calm - N/A   Clear
8:55 AM 57.9 °F 56.7 °F 96% 29.97 in 10.0 mi West 3.5 mph - N/A   Clear
9:15 AM 60.3 °F 57.7 °F 91% 29.97 in 10.0 mi Calm Calm - N/A   Clear
9:55 AM 64.0 °F 58.1 °F 81% 29.97 in 10.0 mi West 4.6 mph - N/A   Clear
10:15 AM 65.8 °F 58.3 °F 77% 29.97 in 10.0 mi WSW 5.8 mph - N/A   Clear
10:35 AM 66.6 °F 57.7 °F 73% 29.96 in 10.0 mi Calm Calm - N/A   Clear
10:55 AM 68.0 °F 57.6 °F 69% 29.95 in 10.0 mi Calm Calm - N/A   Clear
11:15 AM 69.1 °F 56.5 °F 64% 29.96 in 10.0 mi Calm Calm - N/A   Clear
11:35 AM 70.9 °F 56.5 °F 60% 29.95 in 10.0 mi West 5.8 mph - N/A   Clear
11:55 AM 71.6 °F 56.8 °F 60% 29.94 in 10.0 mi SSW 3.5 mph - N/A   Clear
12:15 PM 71.2 °F 55.8 °F 58% 29.94 in 10.0 mi West 5.8 mph - N/A   Clear
12:35 PM 72.7 °F 56.5 °F 57% 29.93 in 10.0 mi Calm Calm - N/A   Clear
12:55 PM 72.9 °F 54.7 °F 53% 29.92 in 10.0 mi WNW 4.6 mph - N/A   Clear
1:15 PM 74.3 °F 56.1 °F 53% 29.91 in 10.0 mi West 4.6 mph - N/A   Clear
1:35 PM 75.2 °F 56.1 °F 51% 29.90 in 10.0 mi WNW 8.1 mph - N/A   Clear
1:55 PM 76.3 °F 55.0 °F 48% 29.91 in 10.0 mi WSW 6.9 mph - N/A   Clear
2:15 PM 76.1 °F 55.4 °F 49% 29.90 in 10.0 mi WNW 10.4 mph - N/A   Clear
2:35 PM 75.9 °F 54.7 °F 48% 29.90 in 10.0 mi SW 5.8 mph - N/A   Scattered Clouds
2:55 PM 76.3 °F 54.9 °F 47% 29.90 in 10.0 mi West 9.2 mph - N/A   Overcast
3:15 PM 75.6 °F 56.3 °F 51% 29.89 in 10.0 mi West 8.1 mph - N/A   Overcast
3:35 PM 77.2 °F 56.1 °F 48% 29.88 in 10.0 mi West 6.9 mph - N/A   Scattered Clouds
3:55 PM 77.4 °F 57.0 °F 49% 29.87 in 10.0 mi West 8.1 mph - N/A   Clear
4:20 PM 77.5 °F 56.7 °F 48% 29.86 in 10.0 mi West 11.5 mph - N/A   Scattered Clouds
4:35 PM 77.0 °F 56.7 °F 49% 29.86 in 10.0 mi West 8.1 mph - N/A   Scattered Clouds
4:55 PM 78.1 °F 57.7 °F 49% 29.86 in 10.0 mi West 5.8 mph - N/A   Mostly Cloudy
5:15 PM 76.5 °F 57.6 °F 52% 29.86 in 10.0 mi SW 8.1 mph - N/A   Mostly Cloudy
5:35 PM 75.9 °F 57.7 °F 53% 29.85 in 10.0 mi SW 3.5 mph - N/A   Overcast
5:55 PM 73.6 °F 61.3 °F 65% 29.87 in 10.0 mi NW 3.5 mph - N/A   Overcast
6:15 PM 72.3 °F 62.2 °F 70% 29.88 in 10.0 mi WNW 3.5 mph - N/A   Overcast
6:35 PM 72.5 °F 61.9 °F 69% 29.88 in 10.0 mi West 3.5 mph - N/A   Overcast
6:55 PM 72.1 °F 62.4 °F 71% 29.88 in 10.0 mi Calm Calm - N/A   Overcast
7:15 PM 72.0 °F 62.6 °F 72% 29.88 in 10.0 mi Calm Calm - N/A   Overcast
7:35 PM 72.1 °F 62.2 °F 71% 29.88 in 10.0 mi Calm Calm - N/A   Overcast
7:55 PM 71.6 °F 63.7 °F 76% 29.88 in 10.0 mi Calm Calm - N/A   Overcast
8:15 PM 71.1 °F 64.0 °F 78% 29.88 in 10.0 mi Calm Calm - N/A   Overcast
8:35 PM 69.8 °F 65.7 °F 87% 29.89 in 10.0 mi Calm Calm - N/A   Overcast
8:55 PM 70.2 °F 64.9 °F 83% 29.89 in 10.0 mi Calm Calm - N/A   Overcast
9:15 PM 69.4 °F 64.8 °F 85% 29.89 in 10.0 mi Calm Calm - N/A   Overcast
9:35 PM 68.9 °F 64.9 °F 87% 29.90 in 10.0 mi Calm Calm - N/A   Overcast
9:55 PM 67.6 °F 65.8 °F 94% 29.90 in 10.0 mi Calm Calm - N/A   Overcast
10:15 PM 67.8 °F 66.2 °F 95% 29.90 in 10.0 mi Calm Calm - N/A   Mostly Cloudy
10:35 PM 66.2 °F 66.2 °F 100% 29.91 in 10.0 mi Calm Calm - N/A   Scattered Clouds
10:55 PM 66.0 °F 66.0 °F 100% 29.91 in 10.0 mi Calm Calm - N/A   Mostly Cloudy
11:15 PM 65.3 °F 65.3 °F 100% 29.91 in 10.0 mi Calm Calm - N/A   Scattered Clouds
11:35 PM 65.1 °F 65.1 °F 100% 29.91 in 10.0 mi Calm Calm - N/A   Mostly Cloudy